Weather History for KCNU - September, 2013

Change the Weather History Date:

Saturday, September 21, 2013

  Actual Average Record
Temperature  
Mean Temperature 64 °F 67 °F  
Max Temperature 79 °F 79 °F 97 °F (1956)
Min Temperature 48 °F 56 °F 35 °F (1918)
Degree Days  
Heating Degree Days 1 2  
Month to date heating degree days 4 17  
Since 1 July heating degree days 4 18  
Cooling Degree Days 0 5  
Month to date cooling degree days 224 163  
Year to date cooling degree days 1491 1467  
Growing Degree Days 14 (Base 50)    
Moisture  
Dew Point 50 °F    
Average Humidity 64    
Maximum Humidity 93    
Minimum Humidity 35    
Precipitation  
Precipitation 0.01 in 0.14 in 2.18 in (1925)
Month to date precipitation 2.17 2.42  
Year to date precipitation 36.95 32.91  
Sea Level Pressure  
Sea Level Pressure 29.98 in    
Wind  
Wind Speed 3 mph (SE)    
Max Wind Speed 13 mph    
Max Gust Speed 29 mph    
Visibility 10 miles    
Events      
T = Trace of Precipitation, MM = Missing Value Source: NWS Daily Summary

Daily Weather History Graph

Daily Weather History Graph

Search for Another Location

Airport or City:

Trip Planner

Search our weather history database for the weather conditions in past years. The results will help you decide how hot, cold, wet, or windy it might be!

Date:

Astronomy

Sep. 21, 2013 Rise Set
Actual Time 7:09 AM CDT 7:20 PM CDT
Civil Twilight 6:42 AM CDT 7:46 PM CDT
Nautical Twilight 6:12 AM CDT 8:16 PM CDT
Astronomical Twilight 5:41 AM CDT 8:47 PM CDT
Moon 8:35 PM CDT (9/21) 9:25 AM CDT (9/21)
Length of Visible Light 13h 03m
Length of Day
12h 10m
Waning Gibbous, 94% of the Moon is Illuminated
Sep 21
Waning Gibbous
Sep 26
Last Quarter
Oct 4
New
Oct 11
First Quarter
Oct 18
Full

Hourly Weather History & Observations

Time (CDT) Temp. Dew Point Humidity Pressure Visibility Wind Dir Wind Speed Gust Speed Precip Events Conditions
12:52 AM 52.0 °F 48.9 °F 89% 30.01 in 10.0 mi Calm Calm - N/A   Partly Cloudy
1:52 AM 51.1 °F 48.0 °F 89% 30.00 in 10.0 mi Calm Calm - N/A   Clear
2:52 AM 50.0 °F 48.0 °F 93% 30.00 in 10.0 mi Calm Calm - N/A   Clear
3:52 AM 50.0 °F 46.9 °F 89% 29.99 in 9.0 mi Calm Calm - N/A   Clear
4:52 AM 48.0 °F 46.0 °F 93% 30.00 in 10.0 mi Calm Calm - N/A   Clear
5:49 AM 51.8 °F 48.2 °F 88% 30.02 in 10.0 mi Calm Calm - N/A   Partly Cloudy
5:52 AM 51.1 °F 48.9 °F 92% 30.01 in 10.0 mi Calm Calm - N/A   Clear
6:52 AM 48.9 °F 46.0 °F 90% 30.01 in 10.0 mi Calm Calm - 0.01 in   Clear
7:52 AM 51.1 °F 48.9 °F 92% 30.03 in 10.0 mi Calm Calm - N/A   Clear
8:52 AM 60.1 °F 53.1 °F 78% 30.04 in 10.0 mi Calm Calm - N/A   Clear
9:52 AM 66.0 °F 50.0 °F 56% 30.04 in 10.0 mi ENE 4.6 mph - N/A   Clear
10:52 AM 70.0 °F 48.9 °F 47% 30.04 in 10.0 mi ENE 6.9 mph - N/A   Clear
11:52 AM 71.1 °F 48.0 °F 44% 30.04 in 10.0 mi Calm Calm - N/A   Clear
12:52 PM 73.9 °F 46.9 °F 38% 30.02 in 10.0 mi Variable 5.8 mph - N/A   Clear
1:52 PM 75.9 °F 48.0 °F 37% 29.99 in 10.0 mi Calm Calm - N/A   Clear
2:52 PM 78.1 °F 48.0 °F 35% 29.96 in 10.0 mi Variable 5.8 mph - N/A   Clear
3:52 PM 79.0 °F 48.0 °F 34% 29.95 in 10.0 mi Calm Calm - N/A   Clear
4:52 PM 78.1 °F 50.0 °F 37% 29.94 in 10.0 mi SSE 5.8 mph - N/A   Clear
5:52 PM 77.0 °F 50.0 °F 39% 29.92 in 10.0 mi SSE 5.8 mph - N/A   Clear
6:52 PM 73.0 °F 53.1 °F 49% 29.92 in 10.0 mi SE 4.6 mph - N/A   Clear
7:52 PM 64.9 °F 54.0 °F 68% 29.92 in 10.0 mi SSE 5.8 mph - N/A   Clear
8:52 PM 63.0 °F 54.0 °F 72% 29.93 in 10.0 mi SSE 5.8 mph - N/A   Clear
9:52 PM 57.9 °F 53.1 °F 84% 29.94 in 10.0 mi SSE 3.5 mph - N/A   Clear
10:52 PM 57.0 °F 53.1 °F 87% 29.94 in 10.0 mi SSE 4.6 mph - N/A   Clear
11:52 PM 55.9 °F 52.0 °F 87% 29.94 in 10.0 mi SE 5.8 mph - N/A   Clear